Flag for U.S.A. Weather past 2 weeks in Glendale, Arizona, U.S.A.

Now
79 °F

Clear.


Feels Like: 78 °F
Forecast: 61 / 92 °F
Wind: No wind

Location: Phoenix-Deer Valley Municipal Airport

Current Time: Mar 28, 2015 at 8:41:21 PM

Latest Report: Mar 28, 2015 at 7:53 PM


Visibility: 10 mi

Pressure: 29.91 "Hg

Humidity: 15%

Dew point: 27 °F

Location of GlendaleLocation

Historic Weather in Glendale — Graph

°F

Glendale temperature yesterday

Maximum temperature yesterday: 90 °F (at 3:53 PM)
Minimum temperature yesterday: 60 °F (at 6:53 AM)
Average temperature yesterday: 75 °F

Past Weeks' High & Low Weather Summary

 TemperatureHumidityPressure
High90 °F (Mar 27, 3:53 PM)96% (Mar 19, 4:53 AM)30.13 "Hg (Mar 19, 4:53 AM)
Low55 °F (Mar 19, 7:53 AM)6% (Mar 27, 3:53 PM)29.78 "Hg (Mar 17, 4:53 PM)
Average71 °F32%29.96 "Hg
* Reported Mar 13 6:53 PM — Mar 28 6:53 PM, Glendale, Weather by CustomWeather, © 2015

Note: Actual official high and low records may vary slightly from our data, if they occured in-between our weather recording intervals... More about our weather records

Advertising

Glendale weather history for previous 24 hours

 ConditionsComfort  
Time TempWeatherWind HumidityBarometerVisibility
6:53 PM
Sat, Mar 28
85 °FClear.5 mph10%29.90 "Hg10 mi
5:53 PM88 °FSunny.6 mph8%29.89 "Hg10 mi
4:53 PM89 °FSunny.6 mph7%29.89 "Hg10 mi
3:53 PM90 °FSunny.5 mph6%29.90 "Hg10 mi
2:53 PM89 °FSunny.8 mph7%29.92 "Hg10 mi
1:53 PM89 °FSunny.7 mph7%29.95 "Hg10 mi
12:53 PM86 °FSunny.3 mph10%29.98 "Hg10 mi
11:53 AM85 °FSunny.5 mph11%30.01 "Hg10 mi
10:53 AM81 °FSunny.No wind14%30.02 "Hg10 mi
9:53 AM77 °FSunny.6 mph16%30.03 "Hg10 mi
8:53 AM72 °FSunny.No wind20%30.03 "Hg10 mi
7:53 AM64 °FSunny.No wind28%30.02 "Hg10 mi
6:53 AM58 °FSunny.No wind36%30.00 "Hg10 mi
5:53 AM59 °FClear.No wind32%29.99 "Hg10 mi
4:53 AM64 °FClear.8 mph25%29.97 "Hg10 mi
3:53 AM65 °FClear.No wind23%29.95 "Hg10 mi
2:53 AM67 °FClear.9 mph20%29.96 "Hg10 mi
1:53 AM68 °FClear.6 mph20%29.96 "Hg10 mi
12:53 AM70 °FClear.9 mph18%29.96 "Hg10 mi
11:53 PM
Fri, Mar 27
70 °FClear.No wind20%29.96 "Hg10 mi
10:53 PM71 °FClear.10 mph19%29.96 "Hg10 mi
9:53 PM72 °FClear.9 mph20%29.96 "Hg10 mi
8:53 PM69 °FClear.No wind27%29.96 "Hg10 mi
Weather by CustomWeather, © 2015

See weather overviewHow to use our weather pages